[[{"header":{"parameterUnit":"m.s-1","parameterCategory":1,"la1":30.2991,"la2":30.254,"lo1":-89.0895,"lo2":-89.0444,"dx":0.0017,"dy":0.0017,"nx":28,"ny":28,"refTime":"2022-12-02T09:00:00:Z","depth":0,"parameterNumber":2,"parameterNumberName":"U-component_of_WINDS"},"data":[0,0,0,0,0,0,0,0,0,0,0,0,0,0,0,0,0,0,0,0,0,0,0,0,0,0,0,0,0,0,0,0,0,0,0,0,0,0,0,0,0,0,0,0,0,0,0,0,0,0,0,0,0,0,0,0,0,0,0.0737,0.0738,0,0.0843,0.0844,0.0846,0.0893,0.0893,0.0893,0.0892,0.1007,0.101,0.1013,0,0,0,0,0,0,0,0,0,0,0,0,0,0.0581,0.0584,0.0737,0.0738,0.074,0.0843,0.0844,0.0846,0.0893,0.0893,0.0893,0.0892,0.1005,0.1009,0.1013,0,0,0,0,0,0,0,0,0,0,0,0,0,0.0664,0.0585,0.0737,0.0775,0.078,0.0843,0.0845,0.0846,0.0893,0.0893,0.0892,0.0892,0.1004,0.1009,0.1014,0.1048,0,0,0.1028,0.103,0,0,0,0,0,0,0,0,0.0659,0.067,0.0769,0.0773,0.0778,0.0854,0.0831,0.0914,0.0893,0.085,0.0892,0.0892,0.0956,0.0965,0.0986,0.1053,0.1058,0.1029,0.1031,0.1034,0.1035,0,0,0,0,0,0,0,0.0654,0.0666,0.0779,0.077,0.0776,0.0789,0.0801,0.0847,0.0904,0.0854,0.0858,0.0869,0.0959,0.0981,0.0989,0.1059,0.1028,0.1033,0.1036,0.1037,0.1161,0.1162,0,0,0,0,0,0,0.0641,0.0661,0.0776,0.0782,0.0717,0.0792,0.0805,0.083,0.0903,0.0914,0.0869,0.0871,0.0973,0.0983,0.0993,0.1038,0.1033,0.1038,0.1041,0.1161,0.1161,0.1162,0,0,0,0,0,0,0.0637,0.0651,0.0772,0.0723,0.0739,0.0795,0.0823,0.0832,0.0854,0.0915,0.0925,0.0881,0.0973,0.0986,0.1034,0.1043,0.104,0.1044,0.116,0.1161,0.1162,0.1128,0,0,0,0,0,0,0.0633,0.0649,0.0661,0.0722,0.0741,0.0808,0.0823,0.0835,0.0862,0.0865,0.0928,0.0939,0.0974,0.1026,0.1038,0.1049,0.1048,0.116,0.1161,0.1161,0.1129,0.1128,0.1127,0,0,0,0,0,0.0627,0.0648,0.0661,0.0675,0.0757,0.0809,0.082,0.0858,0.0862,0.0876,0.0915,0.0937,0.104,0.1031,0.1045,0.1057,0.1159,0.116,0.1161,0.1129,0.1128,0.1127,0,0,0,0,0,0,0.0589,0.0657,0.0672,0.0714,0.0755,0.0817,0.0835,0.0856,0.0898,0.0899,0.0947,0.0961,0.1005,0.1036,0.1024,0.1095,0.1102,0.1105,0.1073,0.1072,0.1071,0.1063,0.1052,0,0,0,0,0,0.0584,0.0619,0.0678,0.0709,0.0729,0.0778,0.0802,0.0828,0.0873,0.0891,0.0934,0.0978,0.1021,0.1048,0.1091,0.1134,0.1149,0.1149,0.1148,0.1147,0.115,0.1177,0.1178,0.1165,0.1165,0.1165,0,0,0.0578,0.0619,0.0638,0.0702,0.0737,0.0774,0.0792,0.083,0.0858,0.0898,0.0945,0.0977,0.1031,0.1076,0.1098,0.1103,0.1157,0.1148,0.1147,0.1151,0.1178,0.1179,0.118,0.1166,0.1166,0.1165,0,0,0.0583,0.0617,0.0648,0.0682,0.0734,0.0767,0.0774,0.0832,0.0855,0.0902,0.0933,0.0968,0.104,0.1077,0.1105,0.1125,0.1148,0.1138,0.1133,0.1158,0.1159,0.116,0.1168,0.1171,0.1141,0.1141,0.1141,0,0.0568,0.0622,0.0661,0.0697,0.0725,0.0761,0.0793,0.0825,0.0889,0.0908,0.0912,0.1004,0.1042,0.1097,0.1102,0.1123,0.1134,0.1131,0.1155,0.1157,0.1159,0.1167,0.117,0.1139,0.1139,0.1139,0.114,0,0.0602,0.0639,0.0657,0.0716,0.0747,0.078,0.0826,0.0852,0.0876,0.0908,0.0957,0.1004,0.1057,0.1072,0.1096,0.1131,0.1133,0.1146,0.1154,0.1158,0.1166,0.117,0.1137,0.1138,0.1138,0.1138,0,0,0.0586,0.0666,0.0672,0.07,0.076,0.079,0.0827,0.0877,0.0899,0.0942,0.0975,0.1035,0.1047,0.1079,0.1108,0.1129,0.1144,0.114,0.1142,0.114,0.1186,0.1177,0.118,0.1158,0.1159,0.116,0.1182,0,0.0601,0.0665,0.0701,0.0751,0.0787,0.0822,0.0854,0.0895,0.0927,0.0963,0.1,0.1042,0.1054,0.1074,0.1097,0.1137,0.1154,0.1136,0.1191,0.1193,0.1177,0.1184,0.1174,0.1193,0.1186,0.1186,0.1187,0,0.0626,0.0666,0.0719,0.0776,0.0793,0.082,0.0869,0.0903,0.0952,0.0974,0.1009,0.1038,0.1079,0.1084,0.1143,0.1129,0.1155,0.1178,0.1179,0.1187,0.119,0.1193,0.12,0.1203,0.1193,0.1192,0.1192,0,0.061,0.0678,0.0719,0.0741,0.0808,0.0827,0.0856,0.0904,0.0932,0.0976,0.0995,0.1044,0.1071,0.1109,0.1151,0.115,0.1206,0.1214,0.1227,0.1226,0.1238,0.1237,0.125,0.1252,0.1252,0.1252,0.1252,0,0.0622,0.0654,0.0713,0.0738,0.0774,0.0817,0.0853,0.0885,0.0928,0.0961,0.0995,0.1026,0.1079,0.1117,0.115,0.1195,0.1207,0.1227,0.1236,0.1224,0.1222,0.1242,0.1242,0.1253,0.1253,0.1253,0.1253,0,0.0611,0.0651,0.0698,0.0758,0.0773,0.0798,0.085,0.0877,0.091,0.0952,0.0965,0.1018,0.1065,0.111,0.1174,0.1196,0.1241,0.1252,0.1224,0.1229,0.124,0.1238,0.1267,0.1274,0.1271,0.1271,0.127,0,0.0616,0.0641,0.0703,0.0727,0.0755,0.0793,0.0821,0.0865,0.0893,0.0951,0.0971,0.102,0.1062,0.1135,0.1181,0.123,0.1243,0.125,0.1251,0.1239,0.1245,0.1243,0.1246,0.1249,0.1249,0.1249,0.1249,0,0.0622,0.0641,0.068,0.0726,0.0758,0.0797,0.0837,0.0856,0.0907,0.0938,0.0985,0.1017,0.1081,0.1131,0.1185,0.1217,0.1242,0.1248,0.1254,0.1243,0.1226,0.1236,0.1222,0.1247,0.1247,0.1247,0.1247,0.1247,0.062,0.0644,0.0691,0.0733,0.0768,0.0805,0.0833,0.087,0.0909,0.0964,0.0987,0.1036,0.1085,0.116,0.1193,0.1232,0.1238,0.1247,0.1249,0.1251,0.1249,0.1219,0.1243,0.1243,0.1243,0.1243,0.1243,0,0.0628,0.066,0.0699,0.0753,0.0787,0.0805,0.0851,0.0879,0.092,0.0963,0.1003,0.1059,0.1106,0.1156,0.1207,0.1229,0.1242,0.1242,0.1241,0.1248,0.124,0.123,0.123,0.123,0.123,0.123,0.123,0.123,0.0637,0.0678,0.0703,0.0763,0.0795,0.0841,0.0866,0.0901,0.0935,0.0995,0.1034,0.1065,0.1112,0.1167,0.1212,0.1226,0.1244,0.124,0.1257,0.1248,0.1249,0.1249,0.124,0.1243,0.1243,0.1262,0.1262,0.1262]},{"header":{"parameterUnit":"m.s-1","parameterCategory":1,"la1":30.2991,"la2":30.254,"lo1":-89.0895,"lo2":-89.0444,"dx":0.0017,"dy":0.0017,"nx":28,"ny":28,"refTime":"2022-12-02T09:00:00:Z","depth":0,"parameterNumber":3,"parameterNumberName":"V-component_of_WINDS"},"data":[0,0,0,0,0,0,0,0,0,0,0,0,0,0,0,0,0,0,0,0,0,0,0,0,0,0,0,0,0,0,0,0,0,0,0,0,0,0,0,0,0,0,0,0,0,0,0,0,0,0,0,0,0,0,0,0,0,0,-0.4619,-0.462,0,-0.4692,-0.4693,-0.4694,-0.4749,-0.4749,-0.475,-0.475,-0.4827,-0.4828,-0.483,0,0,0,0,0,0,0,0,0,0,0,0,0,-0.4528,-0.453,-0.4619,-0.462,-0.4621,-0.4692,-0.4693,-0.4694,-0.4749,-0.4749,-0.475,-0.475,-0.4826,-0.4828,-0.483,0,0,0,0,0,0,0,0,0,0,0,0,0,-0.4581,-0.453,-0.4619,-0.4656,-0.4661,-0.4692,-0.4693,-0.4694,-0.4748,-0.4749,-0.475,-0.4751,-0.4826,-0.4828,-0.483,-0.483,0,0,-0.4838,-0.4839,0,0,0,0,0,0,0,0,-0.4578,-0.4584,-0.465,-0.4654,-0.4659,-0.4712,-0.4689,-0.474,-0.4748,-0.4715,-0.475,-0.4751,-0.4788,-0.4794,-0.4806,-0.4834,-0.4837,-0.4838,-0.4839,-0.484,-0.4841,0,0,0,0,0,0,0,-0.4574,-0.4582,-0.4648,-0.4651,-0.4656,-0.467,-0.4679,-0.4699,-0.4747,-0.4718,-0.4722,-0.473,-0.4791,-0.4803,-0.4808,-0.4838,-0.4838,-0.484,-0.4841,-0.4842,-0.4872,-0.4871,0,0,0,0,0,0,-0.4564,-0.4578,-0.4646,-0.465,-0.4619,-0.4671,-0.4681,-0.4694,-0.4747,-0.4755,-0.4729,-0.4732,-0.4799,-0.4805,-0.4811,-0.4816,-0.484,-0.4842,-0.4844,-0.4873,-0.4872,-0.4871,0,0,0,0,0,0,-0.4562,-0.457,-0.4643,-0.4615,-0.4626,-0.4672,-0.4687,-0.4695,-0.4708,-0.4755,-0.4764,-0.4734,-0.48,-0.4808,-0.4825,-0.4819,-0.4844,-0.4846,-0.4873,-0.4872,-0.4872,-0.4824,0,0,0,0,0,0,-0.4559,-0.4569,-0.4569,-0.4615,-0.4627,-0.4655,-0.4686,-0.4696,-0.4712,-0.4716,-0.4761,-0.477,-0.4801,-0.4822,-0.4828,-0.4823,-0.4848,-0.4874,-0.4873,-0.4872,-0.4827,-0.4822,-0.4818,0,0,0,0,0,-0.4556,-0.4553,-0.4569,-0.4576,-0.4628,-0.4655,-0.4662,-0.4697,-0.4711,-0.4712,-0.4742,-0.4768,-0.4818,-0.4823,-0.483,-0.4826,-0.4875,-0.4873,-0.4872,-0.4829,-0.4823,-0.4818,0,0,0,0,0,0,-0.4505,-0.4559,-0.4578,-0.4589,-0.4617,-0.4664,-0.4666,-0.469,-0.4715,-0.4718,-0.4762,-0.4771,-0.4785,-0.4807,-0.4811,-0.483,-0.485,-0.485,-0.4815,-0.4809,-0.4805,-0.48,-0.485,0,0,0,0,0,-0.4495,-0.4512,-0.4559,-0.4564,-0.4577,-0.4619,-0.4632,-0.4657,-0.4688,-0.47,-0.4732,-0.4761,-0.4784,-0.4798,-0.4821,-0.483,-0.4841,-0.4831,-0.4826,-0.4822,-0.4822,-0.483,-0.4826,-0.4866,-0.4866,-0.4867,0,0,-0.4475,-0.4507,-0.4515,-0.4555,-0.4579,-0.4596,-0.4629,-0.4645,-0.4659,-0.4703,-0.4722,-0.4746,-0.4782,-0.4795,-0.4803,-0.4814,-0.4813,-0.4821,-0.4817,-0.4819,-0.4828,-0.4824,-0.482,-0.4866,-0.4866,-0.4866,0,0,-0.4448,-0.4472,-0.448,-0.4504,-0.4541,-0.4569,-0.457,-0.4614,-0.4632,-0.4651,-0.4685,-0.4702,-0.4739,-0.4764,-0.4781,-0.4763,-0.4788,-0.4769,-0.4746,-0.4753,-0.475,-0.4747,-0.4742,-0.4739,-0.4769,-0.4769,-0.4768,0,-0.4418,-0.4445,-0.4482,-0.4496,-0.4513,-0.4554,-0.4563,-0.4584,-0.4626,-0.4638,-0.465,-0.4698,-0.4725,-0.4746,-0.4741,-0.4754,-0.4758,-0.4765,-0.4747,-0.4745,-0.4743,-0.4738,-0.4736,-0.4766,-0.4766,-0.4767,-0.4767,0,-0.4407,-0.4425,-0.4427,-0.4466,-0.4484,-0.4495,-0.4535,-0.4548,-0.4572,-0.4598,-0.4618,-0.4652,-0.4683,-0.469,-0.4713,-0.4714,-0.472,-0.4739,-0.4761,-0.4736,-0.4733,-0.4731,-0.4763,-0.4763,-0.4764,-0.4765,0,0,-0.435,-0.441,-0.441,-0.4429,-0.4472,-0.4487,-0.4501,-0.4531,-0.4542,-0.457,-0.4583,-0.4614,-0.4632,-0.4652,-0.4678,-0.4684,-0.4669,-0.4703,-0.4704,-0.4696,-0.4673,-0.4659,-0.4656,-0.4685,-0.4685,-0.4685,-0.467,0,-0.433,-0.4356,-0.439,-0.4405,-0.4423,-0.4461,-0.4474,-0.4502,-0.4527,-0.4547,-0.4575,-0.4597,-0.4618,-0.4631,-0.4638,-0.4669,-0.4665,-0.467,-0.4699,-0.47,-0.469,-0.4654,-0.4639,-0.4623,-0.4669,-0.4669,-0.4669,0,-0.431,-0.4335,-0.4352,-0.4394,-0.4403,-0.4413,-0.4444,-0.4461,-0.4495,-0.4513,-0.4535,-0.4563,-0.4581,-0.4599,-0.4625,-0.4627,-0.4641,-0.4658,-0.4659,-0.4663,-0.4683,-0.4658,-0.4619,-0.4617,-0.4666,-0.4667,-0.4667,0,-0.4267,-0.4306,-0.4321,-0.4336,-0.4385,-0.4392,-0.4413,-0.4447,-0.4463,-0.449,-0.4501,-0.453,-0.4546,-0.4568,-0.4604,-0.4614,-0.4625,-0.4647,-0.4642,-0.4641,-0.4643,-0.4643,-0.4606,-0.4651,-0.4651,-0.4651,-0.4651,0,-0.4242,-0.4251,-0.4303,-0.4312,-0.4324,-0.4363,-0.4374,-0.4398,-0.4428,-0.4444,-0.4479,-0.4493,-0.4539,-0.4559,-0.4587,-0.4604,-0.4611,-0.4627,-0.4634,-0.4624,-0.4622,-0.4634,-0.4637,-0.465,-0.465,-0.465,-0.465,0,-0.4197,-0.4232,-0.4251,-0.4296,-0.4308,-0.4314,-0.4354,-0.4365,-0.4392,-0.4412,-0.4418,-0.4462,-0.4487,-0.4525,-0.4561,-0.458,-0.4593,-0.4605,-0.4582,-0.4586,-0.458,-0.458,-0.455,-0.4549,-0.4593,-0.4593,-0.4592,0,-0.4178,-0.4186,-0.4232,-0.4244,-0.4264,-0.4284,-0.4301,-0.434,-0.4356,-0.4395,-0.4401,-0.4429,-0.4453,-0.4492,-0.4527,-0.4555,-0.4569,-0.4556,-0.4573,-0.4563,-0.4569,-0.4569,-0.457,-0.4553,-0.4552,-0.4551,-0.4551,0,-0.4142,-0.4159,-0.4181,-0.4209,-0.4228,-0.4252,-0.4279,-0.4287,-0.4332,-0.4349,-0.4374,-0.4393,-0.4431,-0.4458,-0.4491,-0.4514,-0.454,-0.4545,-0.4546,-0.4536,-0.4522,-0.453,-0.4572,-0.4546,-0.4546,-0.4547,-0.4547,-0.4547,-0.411,-0.4119,-0.4153,-0.4177,-0.42,-0.4224,-0.4237,-0.4266,-0.4288,-0.4321,-0.4343,-0.4368,-0.4402,-0.4449,-0.447,-0.4491,-0.4502,-0.4503,-0.4503,-0.4503,-0.4499,-0.4518,-0.4497,-0.4497,-0.4498,-0.4498,-0.4498,0,-0.4077,-0.41,-0.4122,-0.4157,-0.4176,-0.4198,-0.4228,-0.4243,-0.4264,-0.4293,-0.4316,-0.4346,-0.4373,-0.441,-0.444,-0.445,-0.4463,-0.4456,-0.4456,-0.4461,-0.4487,-0.4484,-0.4446,-0.4446,-0.4446,-0.4446,-0.4446,-0.4446,-0.4061,-0.4078,-0.4099,-0.4128,-0.4152,-0.4176,-0.4191,-0.4214,-0.4237,-0.4269,-0.4291,-0.4315,-0.4348,-0.4381,-0.4407,-0.4417,-0.4427,-0.4417,-0.4431,-0.4455,-0.4459,-0.4464,-0.4461,-0.4419,-0.4419,-0.4404,-0.4404,-0.4404]}]]